Tracking 19634 objects as of 22-May-2019
HD Live streaming from Space Station
objects crossing your sky now

METEOR 1-16

Track METEOR 1-16 now!
10-day predictions
METEOR 1-16 is classified as:


NORAD ID: 7209
Int'l Code: 1974-011A
Perigee: 825.5 km
Apogee: 881.0 km
Inclination: 81.2 °
Period: 101.8 minutes
Semi major axis: 7224 km
RCS: 4.3253 m2 (large)
Launch date: March 5, 1974
Source: Commonwealth of Independent States (former USSR) (CIS)
Launch site: PLESETSK MISSILE AND SPACE COMPLEX (PKMTR)
aabbcc
Your satellite tracking list
Your tracking list is empty




NASA's NSSDC Master Catalog

Two Line Element Set (TLE):
1  7209U 74011A   19141.87056982 -.00000005 +00000-0 -92651-5 0  9997
2  7209 081.2300 045.9392 0038404 197.3554 162.6309 14.13893402330131
Source of the keplerian elements: AFSPC